Location: Unspecified
(51.0950°N, 12.9690°E)
Time: 15:25:56
(UTC+00:00)

BEESAT - Pass Details

Date: 27 April 2024
Orbit: 692 x 702 km, 98.5° (Epoch: 27 May)

Event Time Altitude Azimuth Distance (km) Brightness Sun altitude
Rises 20:12:40 0° 25° (NNE) 3,083 ? -14.6°
Reaches altitude 10° 20:15:26 10° 42° (NE) 2,160 ? -14.9°
Maximum altitude 20:19:01 21° 91° (E) 1,533 ? -15.3°
Enters shadow 20:19:48 20° 106° (ESE) 1,568 ? -15.4°
